Temp
87 86 86 85 86 87 87 87 88 87 86 87 86 86 83 81 77 76 76 78 82 86 90 86 85 87 87 86 89 87 87 86 85 89 88 88 88 78 72 72 72 72 71 72 71 72 72 72 72 73 74 74 74 74 74 74 74 74 74 74 75 75 75 73 73 73 73 73 73 73 73 74 74 75
86 86 86 86 86 87 86 86 87 86 85 85 86 85 85 84 79 78 76 77 83 83 87 90 86 84 85 87 86 88 88 80 84 88 88 88 90 71 72 72 72 71 71 70 70 71 71 71 72 71 71 71 72 72 73 73 73 73 73 73 74 74 74 73 73 73 73 73 73 73 73 74 74 73
86 85 85 85 86 86 86 86 86 86 85 85 86 85 85 84 82 80 79 76 82 86 83 87 92 87 86 90 90 88 88 84 85 87 87 88 77 72 78 71 72 71 70 69 69 69 68 68 69 69 69 69 70 71 71 72 72 72 72 73 73 73 74 73 72 73 73 73 73 72 72 73 73 73
86 85 84 84 84 85 85 85 86 85 85 85 85 85 84 83 83 82 80 77 78 82 85 86 86 89 87 87 87 88 88 85 79 86 86 86 77 84 86 75 71 71 69 69 69 67 67 67 68 68 69 69 70 71 71 71 71 71 71 72 72 72 73 71 71 71 72 72 72 71 72 72 72 72
86 84 84 84 84 85 84 85 86 86 85 85 85 85 84 84 83 81 79 77 78 82 86 86 87 88 88 87 86 85 86 86 85 83 86 87 87 87 88 89 75 71 70 69 68 68 67 67 67 68 69 69 70 70 71 70 69 69 69 69 69 69 70 69 69 70 71 71 71 71 71 71 71 71
86 84 83 84 85 85 84 85 85 86 87 85 85 85 85 84 83 83 81 79 79 78 82 82 85 86 87 83 86 84 85 86 86 85 85 87 87 86 87 87 89 71 72 69 67 67 66 66 67 67 68 68 68 68 69 68 67 67 67 67 66 67 66 66 67 68 69 69 70 70 70 70 70 71
85 84 83 84 85 85 84 84 85 86 85 86 85 84 84 83 84 83 82 80 78 79 80 82 82 83 84 83 84 84 85 85 85 84 84 87 88 88 87 87 90 72 71 69 68 67 66 67 67 67 67 67 67 67 66 65 65 64 64 64 65 65 65 65 66 67 67 68 69 70 70 70 70 70
85 84 83 85 86 85 83 83 83 85 85 84 84 83 83 83 82 83 82 81 80 80 79 81 82 84 82 83 85 86 86 86 84 85 86 86 86 88 88 87 88 77 68 69 68 67 67 66 66 66 65 65 65 64 63 63 64 64 63 63 63 63 63 63 64 65 65 65 66 67 68 68 68 67
85 85 84 85 85 85 83 83 83 84 83 84 84 83 83 83 83 83 83 81 81 79 79 80 82 83 83 84 84 85 84 83 83 84 83 85 85 85 88 90 88 78 68 70 69 68 68 67 66 65 65 65 64 64 63 63 63 63 62 62 62 62 63 62 62 62 63 63 64 63 64 65 66 66
87 86 85 86 86 85 83 83 83 83 83 83 83 82 82 83 83 81 82 81 80 79 79 80 81 81 81 81 82 83 83 82 82 82 82 84 83 83 84 88 89 90 89 87 85 73 70 69 64 65 67 65 64 64 64 64 63 62 61 59 58 60 61 61 62 62 61 62 63 63 64 64 64 64
88 88 87 86 86 85 85 84 84 83 83 83 82 82 81 82 82 81 81 80 80 79 79 80 81 81 82 82 80 82 83 83 82 79 80 80 83 83 82 82 86 88 87 82 75 77 77 72 76 67 62 64 64 64 64 64 62 61 59 58 57 58 58 58 59 60 60 61 61 60 60 60 63 64
90 89 88 89 88 87 86 86 85 84 83 83 82 83 82 82 81 81 81 80 80 79 79 80 80 81 80 81 83 83 81 79 79 81 80 79 80 81 82 83 82 84 84 83 88 78 75 75 70 63 64 66 66 66 66 65 65 63 61 59 60 61 59 58 59 59 59 58 58 58 58 58 60 61
90 91 90 90 91 87 81 77 79 79 78 84 82 82 82 81 81 80 81 80 79 79 79 79 81 80 79 80 80 79 78 78 79 81 82 80 81 82 82 82 82 82 81 82 83 83 84 82 82 84 82 81 74 72 68 72 70 67 64 62 62 62 61 60 60 60 59 59 58 57 58 58 59 61
90 90 92 91 79 76 75 73 72 71 70 73 82 84 82 81 80 80 79 79 80 79 78 79 79 79 79 80 79 80 80 81 81 81 80 78 80 81 80 81 82 83 82 81 79 81 84 83 81 81 82 84 81 83 83 81 75 68 63 64 63 62 62 60 60 59 59 58 58 58 57 57 59 59
88 90 90 91 85 78 75 77 69 70 67 69 70 73 75 77 82 80 79 80 80 79 79 80 79 80 79 81 82 81 83 83 81 81 80 80 80 78 76 75 79 81 80 78 77 79 82 82 79 80 81 82 82 82 80 68 70 66 66 63 63 62 62 62 62 61 60 59 58 58 57 58 58 58
88 89 90 90 90 88 87 86 80 73 68 67 68 69 70 70 73 75 80 80 80 80 79 79 80 80 80 80 81 82 82 81 81 81 81 79 78 77 76 76 76 78 78 77 76 77 81 82 80 79 81 82 82 83 72 68 68 65 64 63 62 63 62 62 62 62 62 61 61 61 61 60 60 60
87 87 87 88 87 89 77 81 84 81 78 67 65 67 67 69 68 68 69 72 81 83 80 80 80 81 81 80 80 82 81 82 80 80 79 79 78 78 77 78 79 79 80 77 74 74 79 80 80 80 81 82 81 82 71 67 66 64 63 63 63 62 62 61 61 61 61 60 60 60 59 58 59 59
87 87 87 86 86 87 85 84 84 83 81 79 77 75 77 80 76 68 66 67 69 76 83 81 80 82 83 80 80 82 82 80 79 79 79 79 79 77 77 78 77 79 81 76 75 73 78 82 80 77 80 82 82 82 73 63 65 65 63 63 61 61 61 61 61 61 60 60 60 59 58 57 57 57
87 87 87 87 86 85 84 84 82 83 82 81 79 78 79 80 81 81 82 83 84 83 84 84 84 83 84 82 82 81 81 82 81 81 79 79 79 78 79 79 79 80 82 79 76 70 76 80 77 77 80 83 82 83 71 63 65 64 62 61 62 61 60 60 61 60 60 60 59 58 57 57 56 55
86 87 87 86 85 85 84 75 69 76 83 82 80 78 79 80 81 82 78 75 77 83 86 85 87 89 87 77 80 81 84 82 82 82 82 81 78 76 75 74 81 81 85 81 76 73 74 78 79 78 81 81 80 80 82 66 63 63 61 62 62 61 60 59 60 59 59 60 59 59 57 56 54 54
87 87 87 86 86 85 84 72 65 67 72 82 81 79 79 80 81 82 83 71 68 69 68 68 64 59 60 60 59 61 66 76 79 82 78 76 79 75 73 75 77 79 84 84 80 77 74 78 78 77 79 78 77 78 79 82 64 61 62 62 62 61 61 60 59 59 60 59 59 59 59 57 56 55
86 85 77 82 86 85 85 65 63 64 72 81 81 80 79 78 79 81 85 84 78 66 65 62 61 63 63 61 60 61 63 63 72 79 76 81 82 77 76 74 77 81 81 81 83 76 75 78 78 76 77 77 79 80 81 79 77 70 66 61 61 61 60 59 59 59 59 59 59 59 57 56 55 66
86 85 80 73 78 81 78 60 62 61 70 81 81 79 79 78 79 81 84 83 79 77 78 77 75 72 69 73 77 74 62 67 73 80 81 82 78 76 78 79 77 75 77 80 79 73 75 75 78 75 73 71 77 80 79 78 78 78 78 79 77 64 61 60 58 57 57 58 59 59 56 56 56 70
84 84 85 76 65 67 63 58 59 59 63 78 81 81 79 79 78 84 84 83 82 78 78 79 78 79 79 79 79 78 74 75 77 79 81 81 78 77 78 79 78 75 77 78 80 76 78 77 75 77 75 69 69 75 77 77 78 78 78 77 78 71 69 65 62 58 56 58 57 56 56 56 57 71
83 83 83 85 67 61 59 57 56 57 58 67 80 80 80 81 80 79 84 80 76 81 79 79 78 79 79 80 81 81 79 79 79 80 81 81 83 82 80 80 80 80 82 77 74 76 73 75 72 74 73 72 73 72 74 75 76 77 77 77 76 77 76 77 74 78 66 57 54 54 55 56 55 63
83 83 83 83 68 59 58 56 55 55 57 61 77 78 68 68 67 81 83 83 81 81 81 80 78 78 79 80 81 83 82 82 81 83 83 85 85 84 84 81 78 77 78 74 68 75 72 71 73 72 71 70 71 72 70 72 75 77 77 77 76 76 77 77 78 78 77 78 78 69 71 59 57 55
83 84 83 80 64 58 56 54 54 54 55 59 71 63 62 60 63 74 84 82 80 81 81 80 78 78 79 79 80 82 82 83 82 86 85 84 83 81 83 82 81 79 81 80 79 76 73 71 73 71 69 70 68 69 70 70 72 75 75 77 77 77 78 79 77 77 78 78 77 65 60 59 58 59
86 84 81 78 59 55 53 53 53 54 56 66 60 56 56 60 66 81 81 79 79 78 79 77 77 77 79 81 81 81 82 84 82 82 83 82 83 81 81 80 79 80 78 79 78 77 75 72 72 73 71 69 68 67 67 72 73 73 72 75 77 78 79 78 77 76 77 77 77 76 76 77 78 75
86 74 66 60 54 55 53 53 53 54 55 58 57 55 56 65 79 78 80 78 78 77 76 76 77 77 78 80 82 82 81 81 82 78 80 82 82 82 80 79 79 78 79 79 78 77 76 74 73 73 71 71 69 69 69 68 70 71 73 71 71 76 76 77 78 77 76 76 76 76 75 75 75 75
70 64 61 55 55 55 57 61 64 64 63 57 57 56 61 77 78 78 78 77 76 75 76 76 76 78 80 80 81 81 80 78 77 77 77 78 77 79 77 75 75 77 79 79 79 78 76 75 73 71 70 70 70 69 69 70 68 71 72 71 72 74 77 78 77 77 75 74 75 74 76 76 75 74
76 66 63 64 61 62 59 62 62 63 60 60 63 68 73 77 78 76 77 78 77 76 77 76 77 79 81 80 78 76 75 75 76 77 76 77 76 76 75 73 73 75 77 79 80 78 77 75 74 72 68 69 70 69 69 70 68 69 71 73 73 69 73 75 75 76 75 74 74 74 73 74 75 75
78 71 61 59 65 64 63 65 66 66 65 67 68 71 74 76 75 74 74 75 78 77 78 78 77 77 76 76 76 76 76 76 76 76 76 76 76 78 76 73 71 73 75 76 76 76 74 74 73 72 71 69 67 68 70 69 69 70 70 72 73 75 75 74 74 74 74 73 71 70 70 72 73 75
74 70 66 66 65 63 63 64 65 65 65 68 69 71 72 74 76 76 78 77 76 76 76 74 73 74 76 75 75 75 75 74 75 76 75 75 75 75 75 73 73 73 73 74 75 74 74 74 74 72 71 71 71 69 67 66 69 71 71 72 72 72 74 74 74 73 72 70 69 69 68 71 74 75
68 66 65 64 63 63 64 64 64 64 65 65 66 68 67 70 72 73 76 77 77 76 74 74 74 74 74 75 75 75 74 73 75 75 71 73 74 72 72 72 72 74 72 72 73 73 74 73 73 72 72 71 72 71 70 68 68 71 72 73 72 71 73 73 73 72 71 69 67 67 68 70 73 76
65 64 63 63 63 64 65 65 65 65 66 66 67 68 69 71 72 73 75 76 76 75 75 74 74 73 74 74 74 74 74 73 74 75 73 74 73 72 73 72 73 72 73 72 72 73 72 71 71 70 70 70 70 72 72 71 70 71 72 72 73 71 70 72 72 71 70 69 70 67 68 69 71 75
64 64 64 63 64 65 65 65 65 65 66 66 67 67 68 69 73 73 71 72 76 75 75 74 73 73 73 75 74 75 75 74 74 73 72 74 74 73 74 73 72 73 73 72 72 73 73 72 71 69 67 68 68 68 71 70 69 73 70 70 72 70 71 71 70 70 70 70 70 69 66 66 69 71
64 64 64 63 64 65 64 65 65 65 66 67 67 67 68 69 70 72 73 72 76 74 73 73 73 74 75 75 74 73 74 74 75 74 73 75 75 73 73 72 71 71 71 72 73 73 72 71 71 69 68 67 67 66 70 74 64 65 73 70 69 71 70 69 69 68 71 71 70 70 68 68 68 70
64 64 63 63 63 64 64 64 64 65 65 66 66 66 67 69 71 73 73 73 73 73 73 74 74 74 76 75 74 73 74 76 76 77 78 77 73 72 72 72 72 72 71 72 73 72 72 71 70 70 69 67 66 66 67 72 73 70 63 68 69 70 71 68 68 69 69 71 70 70 70 68 68 70
64 63 64 63 63 64 63 64 64 64 65 65 66 66 68 70 72 72 70 70 72 72 73 74 75 74 75 75 75 75 75 76 76 77 76 75 74 72 72 72 71 72 72 71 72 72 72 71 71 71 70 68 67 67 68 67 67 73 68 57 68 70 70 70 68 69 69 69 70 70 70 70 69 65
64 64 64 64 64 64 64 64 64 65 65 65 66 69 70 70 71 70 68 69 70 72 73 74 75 72 75 76 75 77 78 76 75 77 76 75 74 73 73 72 71 71 70 70 70 71 72 71 72 72 72 71 71 71 71 70 71 71 73 68 56 65 70 71 69 68 67 69 68 67 66 68 67 69
63 63 63 64 64 64 64 65 66 66 66 66 66 65 69 70 68 67 69 70 69 71 73 74 75 74 75 76 76 77 78 77 78 77 75 74 73 73 70 67 70 70 69 69 70 70 71 73 70 62 67 70 70 71 69 66 65 70 72 75 59 53 58 62 69 68 67 67 67 66 65 64 64 65
63 63 64 64 64 64 65 66 66 65 65 66 67 67 68 68 67 64 67 67 69 71 74 75 75 74 75 77 78 77 78 78 76 75 74 74 73 71 68 68 69 70 69 69 70 72 74 73 72 71 71 70 70 66 65 66 67 69 70 72 75 62 54 54 57 60 67 69 67 64 64 65 65 62
63 63 63 63 64 64 65 65 65 65 65 66 66 66 66 66 67 67 70 69 71 73 75 75 75 75 76 78 78 77 77 77 75 74 74 74 73 72 70 69 69 71 71 71 73 73 73 72 71 72 71 71 69 69 67 68 68 69 69 71 72 74 74 60 55 55 57 58 59 63 66 64 61 56
64 64 64 64 65 65 66 66 66 66 66 68 67 67 67 67 68 69 71 71 72 74 75 74 74 76 76 78 77 77 78 77 75 74 73 72 72 73 72 71 70 71 71 71 71 72 73 73 73 72 71 70 71 69 68 68 69 70 70 70 71 71 71 74 75 64 61 59 56 55 55 56 58 58
64 64 64 64 65 65 66 66 66 67 67 67 68 68 68 69 69 71 73 74 74 75 74 75 75 76 77 77 76 76 75 69 72 74 73 73 72 71 72 72 71 70 69 71 70 70 71 71 73 73 71 71 71 70 69 69 68 69 69 69 69 70 72 71 69 69 70 71 65 55 56 55 56 55
MSLP
1018.45 1018.61 1018.77 1019.01 1019.01 1018.89 1018.85 1018.97 1018.97 1019.13 1019.29 1019.41 1019.57 1019.81 1020.49 1020.93 1021.85 1022.17 1022.21 1021.73 1021.13 1020.29 1019.73 1020.33 1020.13 1019.73 1019.85 1020.01 1019.73 1019.97 1019.97 1019.77 1020.05 1019.89 1019.89 1019.89 1019.93 1020.09 1020.45 1020.65 1020.77 1020.85 1020.93 1020.97 1021.05 1021.09 1021.13 1021.13 1021.17 1021.17 1021.17 1021.17 1021.21 1021.25 1021.25 1021.29 1021.29 1021.25 1021.25 1021.21 1021.21 1021.21 1021.21 1021.21 1021.21 1021.17 1021.09 1021.01 1020.97 1020.93 1020.89 1020.81 1020.73 1020.65
1018.17 1018.29 1018.45 1018.61 1018.81 1018.69 1018.81 1018.97 1018.89 1019.05 1019.37 1019.53 1019.61 1019.73 1019.85 1020.09 1021.13 1021.37 1021.97 1021.73 1020.61 1020.53 1019.93 1019.69 1020.13 1020.05 1019.93 1019.77 1019.93 1019.77 1019.77 1019.85 1020.01 1019.93 1019.81 1019.85 1019.73 1020.17 1020.41 1020.53 1020.61 1020.69 1020.73 1020.77 1020.81 1020.89 1020.89 1020.93 1020.93 1020.97 1021.01 1021.01 1021.05 1021.05 1021.09 1021.05 1021.09 1021.05 1021.05 1021.01 1020.97 1020.97 1020.93 1020.97 1020.97 1020.97 1020.93 1020.89 1020.81 1020.73 1020.69 1020.65 1020.57 1020.53
1017.97 1018.21 1018.41 1018.37 1018.53 1018.41 1018.57 1018.65 1018.73 1018.85 1019.17 1019.33 1019.37 1019.49 1019.61 1019.93 1020.29 1020.77 1021.13 1021.93 1020.49 1019.89 1020.49 1019.81 1019.05 1019.77 1019.85 1019.49 1019.53 1019.65 1019.69 1019.73 1019.93 1019.93 1019.85 1019.81 1019.93 1020.17 1020.25 1020.37 1020.45 1020.49 1020.57 1020.61 1020.69 1020.69 1020.69 1020.73 1020.77 1020.81 1020.85 1020.89 1020.89 1020.93 1020.89 1020.89 1020.85 1020.81 1020.77 1020.77 1020.73 1020.69 1020.69 1020.69 1020.69 1020.69 1020.65 1020.65 1020.61 1020.61 1020.53 1020.45 1020.41 1020.37
1017.65 1018.01 1018.29 1018.29 1018.37 1018.29 1018.37 1018.53 1018.57 1018.81 1018.89 1018.97 1019.17 1019.25 1019.49 1019.69 1019.81 1020.13 1020.73 1021.25 1021.09 1020.09 1019.97 1019.73 1019.69 1019.45 1019.65 1019.61 1019.73 1019.65 1019.49 1019.53 1019.93 1019.89 1019.81 1019.69 1019.97 1019.97 1019.73 1019.89 1020.05 1020.21 1020.33 1020.41 1020.45 1020.49 1020.49 1020.53 1020.57 1020.57 1020.61 1020.65 1020.69 1020.65 1020.65 1020.61 1020.61 1020.53 1020.49 1020.49 1020.45 1020.45 1020.49 1020.49 1020.49 1020.45 1020.41 1020.33 1020.33 1020.33 1020.33 1020.29 1020.21 1020.17
1017.45 1017.77 1018.05 1018.09 1018.09 1018.01 1018.37 1018.41 1018.41 1018.49 1018.69 1018.77 1018.89 1018.97 1019.21 1019.53 1019.61 1019.93 1020.49 1021.01 1020.93 1020.05 1019.33 1019.57 1019.53 1019.29 1019.33 1019.69 1019.61 1019.89 1019.77 1019.69 1019.69 1019.73 1019.65 1019.57 1019.61 1019.49 1019.37 1019.25 1019.53 1019.81 1019.97 1020.13 1020.21 1020.25 1020.25 1020.25 1020.29 1020.33 1020.33 1020.37 1020.37 1020.37 1020.37 1020.33 1020.29 1020.25 1020.21 1020.17 1020.21 1020.25 1020.25 1020.29 1020.29 1020.25 1020.21 1020.17 1020.09 1020.05 1020.05 1020.01 1020.01 1019.97
1017.21 1017.53 1017.85 1017.89 1017.89 1017.85 1018.17 1018.21 1018.29 1018.21 1018.37 1018.61 1018.81 1018.93 1019.05 1019.29 1019.41 1019.37 1020.09 1020.49 1020.61 1020.73 1019.85 1020.01 1019.37 1019.41 1019.37 1020.09 1019.37 1019.81 1019.85 1019.69 1019.49 1019.73 1019.65 1019.45 1019.41 1019.45 1019.25 1019.17 1019.05 1019.49 1019.69 1019.85 1019.97 1020.05 1020.09 1020.09 1020.09 1020.09 1020.09 1020.09 1020.09 1020.09 1020.05 1020.01 1020.01 1020.01 1020.01 1020.01 1020.05 1020.05 1020.09 1020.09 1020.09 1020.05 1020.01 1019.97 1019.93 1019.85 1019.81 1019.81 1019.81 1019.81
1016.93 1017.29 1017.49 1017.57 1017.57 1017.57 1017.93 1018.01 1018.05 1017.97 1018.21 1018.25 1018.57 1018.77 1018.81 1019.09 1019.05 1019.17 1019.49 1020.01 1020.57 1020.53 1020.17 1019.61 1019.81 1019.73 1019.57 1019.81 1019.69 1019.53 1019.45 1019.41 1019.45 1019.77 1019.73 1019.49 1019.17 1019.09 1019.17 1019.13 1018.89 1019.29 1019.45 1019.65 1019.77 1019.81 1019.85 1019.85 1019.85 1019.81 1019.81 1019.81 1019.77 1019.77 1019.73 1019.77 1019.77 1019.81 1019.81 1019.85 1019.85 1019.89 1019.89 1019.85 1019.81 1019.81 1019.81 1019.77 1019.73 1019.69 1019.65 1019.65 1019.61 1019.61
1016.61 1016.89 1017.17 1017.17 1017.13 1017.25 1017.65 1017.81 1017.89 1017.85 1017.93 1018.17 1018.33 1018.53 1018.61 1018.81 1018.97 1018.93 1019.17 1019.45 1019.89 1019.93 1020.25 1019.69 1019.65 1019.25 1019.57 1019.57 1019.25 1019.17 1019.21 1019.37 1019.45 1019.45 1019.25 1019.17 1019.21 1019.05 1018.93 1018.97 1018.97 1019.05 1019.33 1019.45 1019.53 1019.61 1019.61 1019.61 1019.57 1019.53 1019.49 1019.53 1019.53 1019.53 1019.57 1019.57 1019.53 1019.49 1019.49 1019.57 1019.61 1019.69 1019.65 1019.61 1019.61 1019.57 1019.53 1019.57 1019.57 1019.53 1019.45 1019.45 1019.45 1019.41
1016.05 1016.33 1016.57 1016.61 1016.73 1016.93 1017.33 1017.49 1017.61 1017.61 1017.89 1017.93 1018.05 1018.29 1018.33 1018.53 1018.57 1018.65 1018.85 1019.17 1019.37 1019.73 1020.01 1019.69 1019.29 1019.13 1019.25 1019.09 1019.13 1019.05 1019.45 1019.45 1019.37 1019.29 1019.41 1019.29 1019.13 1019.09 1018.85 1018.61 1018.57 1018.81 1019.05 1019.17 1019.29 1019.33 1019.33 1019.29 1019.25 1019.25 1019.33 1019.33 1019.33 1019.37 1019.37 1019.37 1019.33 1019.25 1019.25 1019.25 1019.29 1019.29 1019.29 1019.37 1019.33 1019.37 1019.37 1019.33 1019.29 1019.29 1019.29 1019.25 1019.25 1019.25
1015.37 1015.73 1015.97 1016.05 1016.21 1016.49 1016.89 1017.05 1017.09 1017.25 1017.57 1017.69 1017.89 1018.09 1018.13 1018.17 1018.25 1018.53 1018.65 1018.81 1019.13 1019.37 1019.49 1019.49 1019.41 1019.21 1019.45 1019.37 1019.29 1019.01 1019.13 1019.49 1019.69 1019.57 1019.33 1019.17 1019.13 1019.25 1019.21 1018.77 1018.49 1018.37 1018.49 1018.61 1018.69 1018.89 1018.93 1018.77 1018.89 1019.01 1019.05 1019.13 1019.13 1019.13 1019.09 1019.05 1019.01 1018.97 1018.97 1018.97 1019.01 1019.05 1019.09 1019.13 1019.13 1019.13 1019.13 1019.13 1019.09 1019.05 1019.01 1019.01 1018.97 1018.97
1014.73 1015.01 1015.29 1015.53 1015.65 1015.93 1016.13 1016.45 1016.65 1016.89 1017.13 1017.33 1017.57 1017.73 1017.93 1017.93 1018.17 1018.41 1018.53 1018.69 1018.97 1019.13 1019.33 1019.21 1019.05 1019.05 1018.85 1018.97 1019.45 1018.89 1018.77 1019.01 1019.29 1019.81 1019.81 1019.73 1019.01 1019.01 1019.13 1019.25 1018.73 1018.41 1018.41 1018.41 1018.57 1018.57 1018.53 1018.57 1018.61 1018.73 1018.93 1018.89 1018.85 1018.85 1018.77 1018.69 1018.65 1018.65 1018.69 1018.73 1018.77 1018.81 1018.81 1018.85 1018.85 1018.89 1018.93 1018.89 1018.89 1018.85 1018.85 1018.85 1018.81 1018.77
1014.13 1014.37 1014.61 1014.73 1014.93 1015.13 1015.37 1015.69 1015.93 1016.17 1016.65 1016.81 1017.21 1017.25 1017.49 1017.73 1018.05 1018.25 1018.33 1018.53 1018.73 1018.97 1019.05 1019.05 1018.97 1018.77 1018.85 1018.77 1018.57 1018.49 1018.97 1019.45 1019.41 1019.21 1019.45 1019.85 1019.53 1019.21 1018.85 1018.77 1018.97 1018.69 1018.69 1018.73 1018.21 1018.25 1018.45 1018.33 1018.41 1018.57 1018.57 1018.57 1018.57 1018.57 1018.53 1018.45 1018.41 1018.41 1018.45 1018.57 1018.65 1018.69 1018.69 1018.69 1018.69 1018.69 1018.65 1018.65 1018.65 1018.65 1018.65 1018.69 1018.65 1018.61
1013.61 1013.73 1013.89 1014.01 1014.09 1014.33 1014.69 1015.01 1015.25 1015.45 1015.73 1016.21 1016.81 1016.89 1017.09 1017.49 1017.77 1018.05 1018.09 1018.29 1018.53 1018.69 1018.73 1018.77 1018.53 1018.65 1018.73 1018.57 1018.73 1019.01 1019.17 1019.33 1019.37 1018.77 1018.69 1019.21 1019.01 1018.81 1018.81 1018.57 1018.45 1018.65 1018.93 1018.73 1018.57 1018.53 1018.37 1018.49 1018.37 1018.17 1018.17 1018.01 1018.17 1018.17 1018.21 1018.01 1017.97 1018.05 1018.29 1018.45 1018.49 1018.49 1018.49 1018.49 1018.49 1018.49 1018.49 1018.49 1018.49 1018.49 1018.49 1018.49 1018.45 1018.37
1013.17 1013.21 1013.21 1013.21 1013.57 1013.93 1014.37 1014.77 1015.05 1015.25 1015.49 1015.65 1015.81 1016.17 1016.61 1017.01 1017.41 1017.69 1017.93 1018.09 1018.21 1018.37 1018.57 1018.49 1018.41 1018.61 1018.57 1018.33 1018.37 1018.49 1018.49 1018.25 1018.33 1018.69 1018.93 1019.37 1018.93 1018.77 1018.89 1018.65 1018.29 1018.25 1018.57 1018.77 1018.97 1018.65 1018.21 1018.33 1018.41 1018.25 1018.09 1017.73 1017.69 1017.61 1017.41 1017.53 1017.73 1018.13 1018.25 1018.29 1018.29 1018.33 1018.33 1018.33 1018.33 1018.33 1018.29 1018.29 1018.25 1018.21 1018.17 1018.13 1018.09 1018.05
1012.73 1012.69 1012.73 1012.77 1013.09 1013.65 1014.09 1014.41 1014.77 1015.05 1015.29 1015.45 1015.61 1015.77 1015.89 1016.09 1016.53 1017.09 1017.53 1017.65 1017.61 1017.93 1018.05 1017.89 1017.97 1018.01 1018.09 1017.77 1017.49 1017.89 1017.77 1017.85 1018.09 1018.37 1018.53 1018.73 1018.77 1019.09 1019.41 1019.61 1018.65 1018.21 1018.49 1018.97 1019.13 1018.77 1018.17 1018.21 1018.57 1018.21 1017.97 1017.77 1017.57 1017.45 1017.57 1017.81 1017.81 1017.97 1018.05 1018.13 1018.17 1018.21 1018.21 1018.17 1018.09 1018.01 1017.97 1017.93 1017.93 1017.89 1017.89 1017.85 1017.81 1017.77
1012.13 1012.25 1012.33 1012.41 1012.49 1012.81 1013.21 1013.65 1014.33 1014.73 1014.93 1015.13 1015.33 1015.53 1015.73 1015.89 1015.93 1015.97 1016.41 1016.97 1017.29 1017.37 1017.57 1017.65 1017.49 1017.49 1017.57 1017.45 1017.33 1017.37 1017.53 1017.69 1017.77 1017.93 1018.09 1018.45 1018.69 1018.85 1019.05 1019.01 1019.17 1018.45 1018.37 1018.89 1019.01 1018.93 1018.17 1017.93 1018.13 1018.25 1017.85 1017.49 1017.41 1017.33 1017.49 1017.61 1017.77 1017.89 1017.97 1018.01 1018.05 1018.05 1018.01 1017.97 1017.93 1017.85 1017.81 1017.73 1017.65 1017.61 1017.57 1017.53 1017.49 1017.45
1011.53 1011.69 1011.93 1012.05 1012.09 1012.13 1012.65 1013.13 1013.45 1013.97 1014.53 1014.93 1015.09 1015.25 1015.53 1015.69 1015.73 1015.81 1015.89 1015.97 1016.17 1016.29 1016.89 1017.09 1017.09 1017.05 1016.97 1017.29 1017.17 1016.89 1017.21 1017.17 1017.77 1017.77 1018.13 1018.17 1018.33 1018.41 1018.69 1018.61 1018.41 1018.21 1018.05 1018.61 1019.09 1019.09 1018.29 1018.01 1017.93 1017.81 1017.49 1017.37 1017.29 1017.25 1017.25 1017.49 1017.61 1017.69 1017.77 1017.89 1017.93 1017.89 1017.85 1017.81 1017.77 1017.69 1017.61 1017.53 1017.45 1017.37 1017.29 1017.25 1017.21 1017.13
1010.81 1011.05 1011.33 1011.65 1011.85 1011.77 1012.09 1012.45 1012.85 1013.25 1013.73 1014.21 1014.81 1015.17 1015.29 1015.29 1015.41 1015.65 1015.73 1015.85 1016.05 1016.13 1016.13 1016.41 1016.81 1016.41 1016.37 1016.97 1016.85 1016.57 1016.65 1017.21 1017.57 1017.69 1017.93 1017.85 1018.13 1018.37 1018.45 1018.13 1018.25 1018.01 1017.81 1018.57 1018.85 1019.13 1018.29 1017.57 1017.81 1018.05 1017.53 1017.09 1016.93 1016.77 1016.77 1017.21 1017.33 1017.45 1017.57 1017.69 1017.77 1017.77 1017.77 1017.69 1017.61 1017.49 1017.41 1017.33 1017.25 1017.17 1017.05 1016.97 1016.93 1016.85
1010.13 1010.33 1010.53 1010.81 1011.05 1011.25 1011.53 1011.73 1012.17 1012.61 1013.09 1013.53 1013.93 1014.33 1014.57 1014.69 1014.69 1014.81 1015.05 1015.25 1015.45 1015.69 1015.77 1015.81 1015.89 1015.97 1016.01 1016.29 1016.33 1016.37 1016.37 1016.53 1016.73 1016.93 1017.33 1017.49 1017.69 1017.81 1017.69 1017.77 1017.61 1017.49 1017.13 1017.69 1018.41 1019.29 1018.25 1017.53 1017.89 1017.69 1017.25 1016.65 1016.53 1016.45 1016.69 1016.89 1017.05 1017.25 1017.45 1017.53 1017.57 1017.57 1017.57 1017.49 1017.41 1017.33 1017.25 1017.13 1017.01 1016.89 1016.85 1016.77 1016.73 1016.69
1009.61 1009.77 1009.89 1010.13 1010.37 1010.65 1010.97 1011.33 1011.69 1012.01 1012.33 1012.97 1013.45 1013.81 1013.97 1014.17 1014.21 1014.17 1014.01 1014.17 1014.49 1014.77 1015.05 1015.29 1015.33 1015.33 1015.45 1015.89 1016.17 1016.17 1016.13 1016.25 1016.41 1016.61 1016.85 1017.13 1017.61 1018.01 1018.29 1018.41 1017.53 1017.37 1016.57 1017.09 1018.13 1018.69 1018.37 1017.61 1017.41 1017.25 1016.77 1016.69 1016.85 1016.65 1016.49 1016.69 1016.93 1017.17 1017.25 1017.29 1017.29 1017.29 1017.25 1017.21 1017.17 1017.09 1017.01 1016.89 1016.77 1016.65 1016.57 1016.49 1016.41 1016.37
1008.97 1009.09 1009.21 1009.41 1009.69 1010.09 1010.33 1010.89 1011.53 1011.77 1012.05 1012.53 1012.93 1013.33 1013.61 1013.69 1013.81 1013.81 1013.61 1013.93 1014.29 1014.65 1014.97 1015.17 1015.41 1015.61 1015.81 1016.05 1016.29 1016.45 1016.33 1016.25 1016.25 1016.53 1017.17 1017.69 1017.41 1017.97 1018.41 1018.17 1017.73 1017.33 1016.65 1016.61 1017.13 1017.81 1018.25 1017.37 1017.17 1017.33 1017.01 1016.97 1017.05 1016.89 1016.61 1016.25 1016.73 1016.85 1016.89 1016.89 1016.89 1016.89 1016.89 1016.85 1016.81 1016.73 1016.61 1016.53 1016.41 1016.33 1016.21 1016.13 1016.01 1015.97
1008.33 1008.41 1008.73 1008.97 1009.21 1009.53 1009.77 1010.41 1011.25 1011.65 1011.89 1012.17 1012.45 1012.89 1013.29 1013.57 1013.69 1013.61 1013.29 1013.57 1014.17 1014.53 1014.93 1015.33 1015.57 1015.73 1016.01 1016.25 1016.49 1016.61 1016.61 1016.61 1016.45 1016.65 1017.45 1016.81 1016.77 1017.49 1017.73 1018.05 1017.49 1016.89 1016.77 1016.69 1016.57 1017.69 1017.77 1017.21 1017.21 1017.49 1017.09 1016.97 1016.69 1016.45 1016.17 1016.25 1016.37 1016.33 1016.33 1016.33 1016.45 1016.45 1016.49 1016.53 1016.45 1016.37 1016.25 1016.13 1016.01 1015.89 1015.81 1015.73 1015.73 1015.53
1007.85 1008.05 1008.29 1008.73 1008.89 1009.05 1009.21 1010.05 1010.77 1011.29 1011.41 1011.61 1011.89 1012.37 1012.77 1013.21 1013.33 1013.05 1013.01 1013.33 1014.09 1014.61 1014.89 1015.21 1015.49 1015.85 1016.09 1016.21 1016.29 1016.49 1016.77 1016.73 1016.65 1016.45 1016.53 1016.37 1016.93 1017.57 1017.25 1017.13 1017.25 1017.61 1017.13 1016.41 1016.61 1017.81 1017.53 1017.53 1017.17 1017.41 1017.57 1017.57 1016.73 1016.29 1016.33 1016.33 1016.25 1016.09 1016.01 1015.93 1015.89 1016.01 1016.13 1016.09 1016.05 1015.93 1015.81 1015.69 1015.57 1015.49 1015.41 1015.33 1015.37 1015.13
1007.69 1007.73 1007.89 1008.29 1008.65 1008.85 1009.17 1009.65 1010.17 1010.61 1010.81 1011.01 1011.33 1011.69 1012.13 1012.53 1012.81 1012.25 1012.41 1012.69 1013.21 1014.05 1014.37 1014.57 1014.89 1015.13 1015.29 1015.65 1015.81 1016.13 1016.57 1016.69 1016.53 1016.37 1016.25 1016.37 1016.73 1017.05 1017.05 1016.93 1017.05 1017.41 1016.89 1016.49 1016.61 1017.25 1017.09 1017.21 1017.49 1017.09 1017.37 1017.85 1017.69 1016.77 1016.41 1016.29 1016.13 1016.05 1015.93 1015.85 1015.73 1015.57 1015.57 1015.53 1015.37 1015.25 1015.21 1015.13 1015.09 1015.01 1014.93 1014.89 1014.93 1014.77
1007.33 1007.49 1007.41 1007.33 1007.89 1008.37 1008.73 1009.05 1009.45 1009.93 1010.41 1010.53 1010.69 1011.01 1011.37 1011.45 1011.57 1011.53 1012.01 1012.57 1012.97 1013.49 1013.89 1014.17 1014.49 1014.77 1014.97 1015.17 1015.21 1015.53 1015.97 1016.09 1016.09 1016.05 1016.05 1016.13 1016.01 1016.21 1016.53 1016.65 1016.57 1016.49 1016.13 1016.77 1016.69 1017.05 1017.65 1017.49 1017.65 1017.41 1017.37 1017.41 1017.21 1017.05 1016.49 1016.41 1016.13 1015.93 1015.73 1015.65 1015.61 1015.41 1015.29 1015.05 1014.81 1014.49 1014.37 1014.45 1014.41 1014.41 1014.41 1014.45 1014.53 1014.61
1005.97 1005.93 1006.09 1006.33 1006.97 1007.69 1008.25 1008.65 1008.97 1009.45 1009.97 1010.25 1010.37 1010.53 1010.77 1011.01 1011.25 1011.49 1011.61 1012.13 1012.85 1013.13 1013.49 1013.81 1014.25 1014.53 1014.77 1014.97 1015.09 1015.09 1015.29 1015.49 1015.45 1015.57 1015.49 1015.41 1015.65 1015.73 1015.73 1016.09 1016.57 1016.89 1016.61 1016.73 1016.85 1017.17 1017.65 1017.85 1017.57 1017.61 1017.57 1017.65 1017.17 1016.89 1016.81 1016.53 1016.09 1015.69 1015.57 1015.49 1015.41 1015.21 1015.01 1014.73 1014.41 1014.21 1014.05 1013.81 1013.69 1013.73 1013.89 1014.01 1014.05 1014.01
1004.09 1004.17 1004.57 1005.09 1006.09 1006.97 1007.73 1008.25 1008.57 1009.13 1009.57 1010.05 1010.09 1010.21 1010.61 1010.93 1011.05 1011.33 1011.53 1011.85 1012.61 1012.77 1013.01 1013.45 1014.09 1014.37 1014.45 1014.65 1014.77 1014.77 1014.97 1014.93 1015.01 1014.73 1014.89 1015.13 1015.49 1015.65 1015.65 1015.77 1016.09 1016.41 1016.29 1016.29 1016.57 1017.01 1017.41 1017.57 1017.33 1017.65 1017.73 1017.49 1017.53 1017.13 1016.85 1016.65 1016.17 1015.81 1015.69 1015.37 1015.13 1014.89 1014.57 1014.29 1014.25 1014.09 1013.85 1013.77 1013.57 1013.49 1013.45 1013.33 1013.33 1013.29
1003.17 1003.53 1003.85 1004.53 1005.61 1006.49 1007.25 1007.85 1008.45 1008.97 1009.41 1009.61 1009.89 1010.33 1010.53 1010.73 1010.97 1011.17 1011.41 1011.97 1012.45 1012.57 1012.89 1013.25 1013.73 1014.01 1014.01 1014.05 1014.37 1014.45 1014.41 1014.45 1014.57 1014.97 1014.97 1015.13 1015.13 1015.57 1015.77 1016.01 1016.33 1016.33 1016.45 1016.53 1016.57 1016.73 1017.05 1017.37 1017.29 1017.17 1017.29 1017.45 1017.49 1017.33 1017.05 1016.37 1016.17 1015.97 1015.89 1015.33 1015.05 1014.69 1014.33 1014.21 1014.13 1013.89 1013.69 1013.49 1013.41 1013.25 1013.17 1012.97 1012.73 1012.69
1002.85 1003.17 1003.57 1004.49 1005.53 1006.29 1007.01 1007.73 1008.45 1009.01 1009.33 1009.49 1009.85 1010.29 1010.53 1010.69 1010.85 1011.17 1011.25 1011.69 1012.17 1012.53 1012.81 1013.01 1013.25 1013.69 1013.81 1013.69 1013.69 1013.77 1014.17 1014.37 1014.53 1015.21 1015.09 1015.05 1015.17 1015.37 1015.77 1015.93 1016.01 1016.17 1016.45 1016.45 1016.49 1016.61 1016.77 1016.97 1017.05 1016.93 1017.09 1017.09 1017.21 1016.93 1016.85 1016.65 1016.33 1016.05 1015.69 1015.69 1015.41 1014.65 1014.37 1014.09 1013.77 1013.69 1013.65 1013.57 1013.41 1013.25 1013.13 1012.97 1012.77 1012.49
1002.61 1002.93 1003.41 1004.25 1005.17 1006.05 1006.93 1007.81 1008.25 1008.69 1009.25 1009.73 1010.05 1010.33 1010.45 1010.41 1010.57 1010.85 1011.05 1011.49 1012.01 1012.37 1012.41 1012.57 1012.93 1012.97 1013.05 1013.33 1013.41 1013.73 1014.09 1014.65 1015.09 1015.17 1015.25 1015.33 1015.65 1015.65 1015.97 1016.37 1016.45 1016.29 1016.05 1016.09 1016.25 1016.37 1016.53 1016.73 1016.81 1016.93 1017.01 1016.93 1016.89 1016.85 1016.61 1016.49 1016.25 1015.89 1015.69 1015.53 1015.05 1014.53 1014.01 1013.73 1013.69 1013.57 1013.49 1013.37 1013.21 1013.17 1012.97 1012.85 1012.57 1012.25
1002.65 1002.73 1003.01 1003.73 1004.65 1005.53 1006.53 1007.01 1007.49 1008.13 1009.05 1009.85 1010.25 1010.37 1010.29 1010.17 1010.33 1010.61 1010.77 1011.13 1011.61 1011.81 1011.77 1012.01 1012.29 1012.29 1012.33 1012.77 1013.53 1014.25 1014.65 1014.85 1014.89 1014.85 1015.05 1015.29 1015.53 1015.69 1015.89 1016.17 1016.33 1016.21 1015.89 1015.81 1015.93 1016.09 1016.29 1016.41 1016.53 1016.69 1017.01 1016.89 1016.69 1016.61 1016.45 1016.37 1016.29 1015.97 1015.53 1015.09 1014.85 1015.01 1014.09 1013.73 1013.57 1013.45 1013.33 1013.17 1013.05 1013.01 1012.93 1012.61 1012.13 1011.77
1002.21 1002.69 1002.97 1003.69 1004.65 1005.69 1006.69 1007.17 1007.73 1008.29 1008.93 1009.41 1009.81 1010.01 1010.09 1010.17 1010.21 1010.53 1010.77 1010.93 1011.17 1011.33 1011.37 1011.53 1011.73 1011.97 1012.33 1012.93 1013.61 1014.13 1014.41 1014.53 1014.65 1014.65 1014.93 1015.17 1015.25 1015.17 1015.37 1016.01 1016.37 1016.09 1015.85 1015.77 1015.93 1015.97 1016.25 1016.41 1016.45 1016.45 1016.53 1016.65 1016.73 1016.45 1016.29 1016.17 1016.01 1015.69 1015.29 1014.81 1014.45 1014.09 1013.81 1013.73 1013.61 1013.33 1013.05 1013.13 1013.37 1013.33 1012.97 1012.49 1011.97 1011.53
1002.45 1003.05 1003.53 1003.93 1004.45 1005.25 1005.97 1006.57 1007.13 1007.81 1008.29 1008.65 1009.17 1009.65 1009.89 1010.13 1010.29 1010.53 1010.85 1011.25 1011.33 1011.29 1011.29 1011.53 1011.81 1012.01 1012.21 1012.85 1013.37 1013.73 1014.13 1014.29 1014.41 1014.49 1014.85 1015.05 1015.25 1015.25 1015.41 1015.81 1015.73 1015.77 1015.85 1015.73 1015.73 1015.89 1015.93 1015.93 1015.97 1016.13 1016.21 1016.21 1016.21 1016.25 1016.33 1016.21 1015.65 1015.21 1014.89 1014.53 1014.33 1014.13 1013.81 1013.53 1013.37 1013.17 1013.09 1013.29 1013.33 1013.05 1012.77 1012.21 1011.73 1011.41
1002.97 1003.29 1003.17 1003.21 1003.41 1003.89 1004.69 1005.45 1006.01 1006.41 1006.77 1007.25 1007.93 1008.61 1009.17 1009.65 1010.05 1010.37 1010.65 1010.85 1010.85 1010.93 1011.13 1011.29 1011.49 1011.69 1012.05 1012.57 1013.09 1013.49 1013.77 1014.09 1014.21 1014.33 1014.77 1015.13 1015.13 1015.45 1015.53 1015.69 1015.61 1015.45 1015.61 1015.73 1015.73 1015.73 1015.65 1015.77 1015.85 1015.85 1015.85 1015.77 1015.65 1015.69 1015.77 1015.77 1015.45 1014.97 1014.53 1014.33 1014.21 1014.05 1013.61 1013.41 1013.17 1013.05 1013.09 1013.21 1013.25 1012.97 1012.41 1011.81 1011.33 1010.89
1002.13 1002.69 1002.97 1003.21 1003.09 1002.85 1003.21 1003.89 1004.37 1004.93 1005.77 1006.45 1006.97 1007.65 1008.17 1008.61 1009.45 1010.05 1010.37 1010.41 1010.45 1010.77 1010.89 1011.01 1011.09 1011.25 1011.61 1012.09 1012.69 1013.05 1013.41 1013.77 1014.01 1014.09 1014.65 1014.73 1014.97 1015.21 1015.13 1015.21 1015.17 1015.21 1015.33 1015.49 1015.53 1015.49 1015.61 1015.73 1015.73 1015.69 1015.53 1015.41 1015.25 1014.65 1014.49 1014.69 1014.85 1014.61 1014.37 1014.17 1013.93 1013.85 1013.65 1013.33 1013.13 1012.89 1012.89 1012.89 1012.69 1012.57 1012.13 1011.57 1011.01 1010.49
1000.77 1001.13 1001.61 1002.13 1002.37 1002.25 1002.25 1002.37 1002.97 1003.97 1004.81 1005.49 1005.97 1006.73 1007.81 1008.77 1009.25 1009.69 1010.05 1010.25 1010.25 1010.45 1010.65 1010.89 1011.09 1011.25 1011.49 1011.77 1012.25 1012.65 1013.01 1013.25 1013.57 1014.01 1014.41 1014.49 1014.57 1014.77 1014.73 1014.77 1014.85 1014.97 1015.09 1015.25 1015.33 1015.21 1015.29 1015.37 1015.41 1015.57 1015.57 1015.33 1015.13 1014.85 1013.97 1013.65 1014.17 1014.25 1014.45 1014.21 1013.85 1013.77 1013.53 1013.21 1013.01 1012.89 1012.73 1012.37 1012.09 1012.09 1011.93 1011.45 1010.85 1010.41
999.49 1000.33 1000.89 1001.49 1001.73 1001.57 1001.33 1001.41 1002.25 1003.09 1003.97 1004.81 1005.57 1006.17 1007.01 1008.09 1008.81 1009.29 1009.45 1009.69 1009.77 1010.05 1010.25 1010.65 1010.97 1011.05 1011.13 1011.49 1011.97 1012.41 1012.73 1013.13 1013.17 1013.45 1013.85 1013.81 1014.05 1014.41 1014.49 1014.53 1014.73 1014.97 1015.17 1015.13 1015.05 1015.05 1015.13 1015.25 1015.21 1015.29 1015.37 1015.21 1015.09 1014.81 1014.17 1013.61 1013.97 1013.89 1013.93 1014.05 1013.89 1013.57 1013.33 1013.17 1013.01 1012.77 1012.13 1011.89 1011.85 1011.73 1011.53 1011.25 1010.77 1010.29
998.09 999.05 1000.05 1000.85 1001.41 1001.01 1000.09 1001.45 1002.65 1003.41 1004.09 1004.69 1005.09 1005.73 1006.57 1007.37 1008.21 1008.65 1008.97 1009.41 1009.61 1009.81 1010.01 1010.25 1010.45 1010.65 1010.85 1011.21 1011.81 1012.25 1012.41 1012.37 1012.57 1012.49 1012.53 1013.17 1014.01 1014.13 1014.17 1014.29 1014.37 1014.57 1014.77 1014.77 1014.77 1014.85 1014.85 1014.93 1014.97 1014.93 1015.05 1015.17 1015.01 1014.73 1014.41 1013.73 1013.73 1013.77 1013.81 1013.93 1013.81 1013.45 1013.17 1013.05 1012.73 1012.21 1011.93 1011.69 1011.61 1011.33 1011.17 1010.97 1010.53 1010.13
996.81 997.89 998.45 998.57 998.93 1001.49 1002.13 1002.05 1003.13 1004.13 1004.53 1004.73 1004.89 1005.29 1006.13 1007.01 1007.81 1008.45 1009.13 1009.45 1009.57 1009.65 1009.65 1009.73 1009.93 1010.29 1010.61 1011.01 1011.33 1011.61 1011.97 1012.09 1012.41 1012.41 1012.65 1013.09 1013.49 1013.69 1013.85 1014.01 1014.29 1014.29 1014.49 1014.61 1014.57 1014.57 1014.57 1014.61 1014.49 1014.49 1014.53 1014.69 1014.81 1014.61 1014.49 1014.57 1014.33 1013.65 1013.33 1013.49 1013.33 1013.25 1012.93 1012.77 1012.49 1012.13 1011.85 1011.65 1011.29 1011.09 1010.89 1010.45 1010.05 1009.69
995.41 996.85 997.57 998.33 999.77 1000.41 1000.25 1000.45 1002.09 1003.81 1004.69 1004.69 1004.69 1005.05 1005.73 1006.65 1007.49 1008.33 1009.17 1009.57 1009.73 1009.65 1009.45 1009.45 1009.57 1010.13 1010.45 1010.69 1011.01 1011.09 1011.13 1011.73 1011.97 1012.05 1012.49 1012.89 1013.01 1013.25 1013.49 1013.73 1014.05 1014.17 1014.37 1014.45 1014.37 1014.17 1014.09 1014.05 1013.97 1014.05 1014.13 1014.25 1014.37 1014.45 1014.41 1014.29 1013.93 1013.53 1013.05 1012.53 1012.61 1012.81 1012.69 1012.49 1012.37 1012.13 1011.81 1011.49 1011.29 1011.09 1010.69 1010.29 1009.97 1009.53
995.09 996.57 997.41 998.05 999.05 999.97 1000.97 1001.29 1001.97 1003.25 1004.09 1004.25 1004.25 1004.65 1005.37 1006.29 1007.25 1008.09 1008.65 1009.05 1009.37 1009.41 1009.33 1009.29 1009.49 1009.89 1010.21 1010.37 1010.57 1010.73 1010.69 1011.13 1011.49 1011.85 1012.29 1012.65 1012.81 1013.01 1013.33 1013.73 1014.01 1014.13 1014.33 1014.21 1014.05 1013.89 1013.73 1013.49 1013.77 1014.17 1014.33 1014.37 1014.33 1014.29 1014.33 1014.25 1013.81 1012.93 1012.53 1012.17 1012.13 1012.25 1012.13 1012.13 1012.05 1011.97 1011.73 1011.41 1011.25 1011.01 1010.65 1010.25 1009.81 1009.45
994.65 996.05 997.37 998.01 998.81 999.45 1000.49 1001.73 1002.41 1003.17 1003.65 1003.93 1004.29 1004.81 1005.57 1006.41 1007.13 1007.77 1008.45 1008.97 1009.25 1009.25 1009.05 1009.13 1009.41 1009.77 1009.97 1010.13 1010.21 1010.41 1010.37 1010.81 1011.45 1011.97 1012.17 1012.33 1012.61 1012.97 1013.49 1013.85 1014.09 1014.01 1014.05 1013.89 1013.57 1013.29 1013.05 1013.29 1013.61 1013.85 1013.89 1013.97 1014.05 1014.25 1014.05 1013.65 1013.29 1012.85 1012.53 1012.25 1011.73 1011.57 1011.77 1011.81 1011.69 1011.53 1011.33 1011.21 1011.13 1010.93 1010.53 1009.97 1009.81 1009.69
995.89 996.85 997.81 998.29 998.69 999.73 1001.05 1002.01 1002.73 1003.21 1003.49 1003.85 1004.29 1004.73 1005.49 1006.41 1007.25 1007.97 1008.33 1008.65 1008.85 1008.77 1008.73 1008.97 1009.29 1009.61 1009.69 1009.73 1009.93 1010.33 1010.61 1010.89 1011.37 1011.77 1011.89 1012.09 1012.29 1012.57 1013.09 1013.53 1013.73 1013.53 1013.37 1013.29 1013.05 1013.05 1013.09 1013.17 1013.33 1013.41 1013.45 1013.53 1013.53 1013.53 1013.53 1013.13 1012.89 1012.73 1012.45 1012.05 1011.77 1011.49 1011.25 1011.13 1011.09 1011.05 1011.01 1010.85 1010.77 1010.61 1010.45 1010.37 1010.29 1010.01
996.93 997.41 998.17 998.53 998.77 999.81 1001.17 1002.09 1002.89 1003.53 1003.85 1004.21 1004.69 1005.09 1005.69 1006.41 1007.21 1007.69 1007.85 1008.05 1008.29 1008.37 1008.41 1008.81 1009.09 1009.33 1009.45 1009.37 1009.85 1010.13 1010.25 1010.53 1011.13 1011.45 1011.69 1011.89 1012.09 1012.25 1012.49 1012.81 1013.17 1013.25 1013.21 1013.09 1012.97 1012.81 1012.73 1012.81 1012.81 1012.93 1013.13 1013.17 1013.01 1013.09 1013.01 1012.89 1012.65 1012.37 1012.21 1012.01 1011.69 1011.41 1011.13 1010.65 1010.49 1010.49 1010.33 1010.21 1010.09 1010.21 1010.33 1010.41 1010.41 1010.17
998.29 998.53 998.69 999.05 999.57 1000.41 1001.21 1002.13 1003.01 1003.65 1004.17 1004.65 1005.13 1005.53 1006.05 1006.57 1007.05 1007.25 1007.33 1007.49 1007.65 1007.89 1008.25 1008.57 1008.89 1009.13 1009.17 1009.37 1009.81 1010.09 1010.45 1010.65 1010.85 1011.09 1011.41 1011.65 1011.93 1012.17 1012.41 1012.53 1012.85 1013.17 1013.17 1012.85 1012.81 1012.69 1012.61 1012.61 1012.53 1012.57 1012.73 1012.73 1012.65 1012.69 1012.61 1012.57 1012.49 1012.37 1012.05 1011.73 1011.53 1011.21 1010.93 1010.77 1010.73 1010.45 1010.09 1009.77 1009.45 1009.73 1009.89 1009.97 1009.93 1009.77
Wind_Speed
9 9 10 8 7 6 6 6 5 4 4 4 4 5 5 5 5 4 5 5 5 5 6 5 6 4 4 4 4 4 6 4 4 6 5 5 6 9 11 9 8 8 7 7 8 8 8 9 9 10 10 10 10 10 10 10 10 11 10 11 11 11 11 10 10 10 11 12 12 12 12 12 12 12
9 9 9 9 7 7 7 7 7 5 5 5 5 5 5 4 5 5 5 3 4 3 3 6 4 5 4 4 4 4 5 8 3 5 6 5 3 10 6 7 7 8 8 8 8 8 8 9 9 9 9 9 9 10 11 11 11 11 11 11 11 11 11 10 10 11 12 12 13 12 12 13 13 12
9 10 10 9 8 8 9 8 8 7 7 6 6 6 6 6 6 5 4 5 4 3 3 3 2 5 5 5 5 5 5 6 5 5 5 6 5 4 5 8 8 9 9 8 8 9 9 9 9 8 8 8 8 9 10 11 11 11 11 11 12 11 11 10 9 10 11 11 12 11 12 12 13 13
9 10 11 10 9 8 8 8 8 8 8 7 7 7 7 6 7 6 6 6 3 4 5 3 3 4 5 5 5 4 3 5 7 5 5 3 6 6 7 12 12 10 9 9 9 9 8 8 8 8 8 8 8 9 10 10 10 10 11 11 11 11 11 9 9 9 10 11 10 10 12 12 13 13
9 10 11 11 10 9 9 8 8 8 9 9 8 7 7 7 7 7 7 7 6 5 4 4 4 5 5 6 6 6 6 5 5 5 5 5 6 5 5 4 12 11 9 9 8 8 8 8 8 8 8 8 8 8 9 9 10 10 11 11 10 10 10 10 9 10 11 10 10 10 11 12 12 12
9 10 11 11 11 11 10 10 10 9 9 10 9 8 8 8 7 8 7 7 6 6 5 5 5 5 6 6 5 6 6 6 5 5 4 4 5 5 5 6 4 14 10 10 9 8 8 8 9 9 9 9 9 9 9 10 10 10 10 10 10 10 9 9 9 10 10 11 11 11 11 11 11 12
11 11 11 12 11 10 11 11 10 10 9 9 9 9 8 8 8 8 8 7 7 7 6 5 6 6 6 7 6 7 6 5 4 5 5 6 6 5 5 5 5 11 10 9 8 9 8 9 9 9 9 10 10 10 10 10 10 9 9 9 9 9 9 10 9 9 10 10 10 10 10 10 11 12
12 13 12 12 12 12 12 12 10 10 10 9 9 10 9 9 9 7 8 8 7 6 6 6 6 5 6 7 6 5 5 6 6 6 6 5 5 6 5 5 6 6 8 8 8 8 8 9 10 10 11 10 10 10 10 10 10 10 9 9 8 8 9 10 10 9 10 10 9 10 10 10 11 10
13 13 13 13 13 13 12 12 12 11 12 10 10 10 9 9 9 8 8 8 8 7 7 6 6 5 5 5 6 6 6 6 6 6 6 6 5 5 6 5 4 4 10 9 10 9 11 11 12 11 10 10 9 9 9 9 9 9 9 9 8 9 10 10 10 10 10 10 10 9 9 9 10 11
14 13 14 13 13 14 13 12 12 12 13 12 11 11 10 10 9 9 9 8 8 8 8 7 6 7 7 6 6 7 7 6 6 6 6 6 5 5 6 5 4 4 4 4 5 9 10 14 13 10 10 9 8 8 8 8 9 9 9 9 9 9 9 9 9 9 9 9 9 9 9 10 10 10
14 14 14 13 14 14 14 14 13 13 13 12 13 12 11 10 10 10 9 9 10 9 8 8 7 7 7 7 7 7 7 6 5 5 5 5 5 6 5 5 4 5 5 6 8 8 8 8 7 4 6 7 9 9 9 9 10 9 9 9 8 8 9 8 8 8 9 8 8 8 9 10 10 11
14 15 15 15 15 15 14 14 13 13 12 11 12 11 10 11 11 10 9 10 10 9 9 8 8 7 7 7 7 6 6 6 6 6 6 6 5 5 5 5 5 4 5 7 6 9 10 11 11 11 9 10 10 10 9 11 11 10 8 7 6 6 7 8 7 7 7 8 8 9 10 10 10 10
14 14 14 15 15 15 15 16 14 13 12 11 11 11 11 11 11 10 9 10 9 10 9 9 8 8 8 8 8 8 8 7 6 5 6 6 5 5 6 4 5 4 4 4 5 5 5 6 7 6 7 6 8 11 13 9 11 10 4 2 3 4 5 6 7 7 8 8 9 9 9 10 9 9
15 15 14 14 17 15 16 15 15 14 14 13 11 10 11 11 11 11 10 10 10 10 10 9 9 9 9 9 9 9 8 6 6 6 6 7 6 6 5 5 5 4 4 4 4 5 5 6 7 7 8 7 7 7 6 3 7 6 3 3 4 5 6 7 8 8 8 9 9 8 8 8 9 9
14 14 15 14 13 14 13 15 17 14 14 15 13 11 11 12 12 11 12 11 10 10 10 9 9 9 10 9 8 8 8 7 7 6 6 6 6 6 6 6 2 3 2 3 6 8 6 7 8 7 7 7 7 7 2 6 4 2 3 3 4 5 6 7 7 8 9 9 9 9 9 8 9 9
13 13 13 13 11 13 16 15 14 15 16 16 16 14 12 12 14 12 11 11 11 11 10 10 10 9 9 9 8 8 7 6 6 6 6 7 6 6 6 5 5 3 3 4 7 8 6 6 7 7 7 7 6 7 3 3 4 4 3 4 5 6 7 7 7 7 8 8 9 9 9 9 9 9
14 13 12 12 11 10 16 15 15 15 14 14 17 16 14 11 13 14 13 10 9 10 11 10 10 10 9 8 8 8 6 5 6 5 6 6 6 6 5 5 5 1 1 5 7 8 7 7 7 8 6 6 6 7 5 6 5 6 5 4 6 7 8 8 7 8 8 8 9 9 10 10 10 10
15 15 13 12 12 12 13 15 15 14 15 14 13 12 12 13 14 13 14 14 13 11 11 11 11 9 8 8 6 6 6 6 6 6 6 6 6 6 5 3 3 4 4 7 6 7 7 5 7 8 8 7 8 7 4 13 10 8 7 6 6 7 8 9 9 9 9 9 9 10 10 11 11 11
15 15 14 14 13 13 13 14 16 15 14 14 13 14 15 15 15 15 15 15 14 13 14 12 11 10 8 8 7 6 6 8 6 5 4 3 4 3 4 5 6 7 7 8 6 7 6 7 8 8 9 9 7 7 4 14 11 9 8 7 7 8 9 9 10 10 10 11 11 11 11 11 11 12
14 14 15 15 15 14 14 14 19 16 14 14 14 14 15 14 14 14 14 15 15 14 13 12 12 10 8 4 3 3 6 7 5 5 5 5 4 5 5 6 6 6 2 4 3 6 7 6 10 9 8 7 8 6 8 9 10 10 8 8 9 10 10 11 10 11 11 12 12 12 13 13 13 13
15 16 17 16 14 15 14 14 19 18 16 14 16 15 14 13 13 14 12 13 14 12 7 4 6 11 10 8 7 4 4 1 4 6 6 6 6 6 6 6 6 5 4 4 4 5 7 8 8 8 7 8 7 8 8 5 11 11 10 10 11 12 12 12 12 12 12 13 13 13 14 14 14 14
14 16 19 19 17 15 14 17 21 19 16 14 15 15 15 14 14 13 12 10 10 11 7 7 8 7 8 6 5 4 4 3 4 7 7 6 6 6 6 7 6 5 3 5 2 5 7 7 6 7 7 7 8 7 5 5 6 7 9 13 13 13 13 12 13 13 13 14 14 14 15 14 14 10
16 14 14 17 17 17 13 21 22 21 19 15 16 15 15 15 14 13 13 13 12 10 10 8 6 5 5 5 6 6 6 5 8 8 8 6 6 6 6 6 5 5 6 2 7 4 5 5 5 6 7 8 6 6 5 6 7 6 7 7 5 8 11 12 13 15 16 16 15 15 16 16 12 8
17 15 14 13 19 17 14 22 23 22 22 17 15 15 15 15 15 12 14 14 13 12 12 11 11 10 9 8 8 8 7 7 9 8 8 7 6 6 6 6 6 6 6 5 4 2 4 4 7 5 7 9 8 5 7 7 6 7 8 8 8 7 6 10 12 16 17 16 17 17 17 16 13 8
16 15 16 12 17 19 18 22 23 23 22 18 15 17 15 14 12 12 12 11 12 12 13 11 10 9 9 9 10 9 8 8 9 9 9 8 7 6 7 6 7 7 3 8 1 2 4 5 7 7 6 7 8 9 7 7 7 8 7 7 8 8 8 8 9 8 8 15 17 17 16 15 14 10
18 18 16 13 16 22 19 21 22 24 23 22 12 13 13 11 10 9 11 10 11 12 13 11 10 9 9 9 9 9 9 8 9 8 9 9 7 7 7 5 5 4 3 7 5 1 4 5 6 7 7 7 8 8 9 8 8 7 6 8 8 8 8 9 8 7 8 8 7 5 5 10 14 16
19 18 15 14 19 23 21 21 22 22 23 20 13 14 14 11 13 11 13 11 12 13 12 12 10 10 10 9 9 9 8 8 9 8 7 7 8 6 4 2 2 3 4 1 0 1 4 6 5 6 7 7 8 8 8 8 7 7 9 8 8 8 8 8 8 8 8 9 9 9 11 14 16 17
16 14 13 14 19 23 22 21 20 20 20 14 18 11 13 15 12 11 13 10 11 12 12 12 11 11 9 10 9 9 8 7 7 6 6 6 5 5 4 5 4 4 4 4 4 4 4 6 6 6 6 7 8 8 9 8 9 9 9 8 9 9 8 8 9 9 8 8 8 9 9 10 8 8
17 15 18 17 21 22 22 21 19 16 18 19 18 14 14 13 11 13 12 12 12 13 13 11 11 10 9 8 8 7 6 6 6 7 5 5 5 5 4 3 3 3 4 5 5 5 5 5 6 6 6 6 7 8 8 9 9 9 9 10 9 8 8 9 8 8 9 9 9 10 10 10 10 10
17 18 20 22 23 22 20 14 10 8 10 13 15 15 14 12 13 12 13 12 11 11 13 11 11 10 9 8 7 7 7 7 8 8 7 6 5 5 5 5 6 7 7 6 6 5 5 5 5 5 6 6 7 8 8 9 10 10 10 10 10 9 8 7 8 8 8 9 9 10 11 11 12 12
11 17 18 16 18 16 21 18 15 13 13 11 10 8 11 13 11 11 12 13 12 12 12 11 10 9 8 7 6 6 8 9 8 7 7 7 7 7 7 6 5 6 5 5 5 5 5 4 4 5 7 7 7 8 8 9 10 10 10 9 9 9 8 8 8 8 8 10 11 12 11 12 12 12
12 11 14 18 14 13 12 11 9 9 9 10 11 12 13 13 9 9 10 10 11 10 10 9 8 7 8 9 9 9 9 9 8 8 7 7 6 6 5 5 6 6 5 5 5 5 6 6 6 5 6 6 8 8 8 9 10 10 10 9 9 9 9 9 9 9 9 10 11 11 11 12 13 13
9 10 8 11 14 14 14 14 13 12 13 13 12 14 13 10 10 10 11 13 12 11 9 8 7 8 8 8 9 9 9 8 8 7 7 6 6 5 5 6 6 5 6 5 5 5 5 6 6 6 6 7 8 9 9 10 9 9 9 8 8 9 8 8 9 10 10 10 11 12 12 12 13 13
11 13 14 14 17 17 15 17 15 16 15 15 14 14 13 11 11 12 13 12 12 11 9 7 9 10 10 10 10 10 9 8 8 9 8 8 7 6 6 6 7 6 6 6 5 5 4 4 4 5 7 9 9 10 9 10 10 9 8 7 8 9 8 8 9 10 9 10 11 13 13 14 13 12
14 13 13 13 12 14 19 17 18 18 17 15 15 14 13 10 10 10 11 13 13 12 11 9 8 10 10 10 10 10 9 10 9 8 8 8 8 7 7 7 7 6 6 6 6 5 4 5 5 6 6 7 9 9 15 14 9 8 7 8 8 9 9 9 9 9 10 10 10 12 14 14 14 12
16 17 16 14 14 17 18 19 18 17 16 15 16 15 13 12 11 10 11 10 12 12 9 9 9 10 11 10 10 10 10 9 9 8 9 9 9 8 7 7 6 6 6 6 6 5 5 5 5 6 7 7 7 8 6 18 16 7 8 8 8 9 9 9 9 10 11 11 11 11 13 14 14 14
18 16 15 16 17 19 18 19 18 17 17 16 14 16 17 16 13 13 12 12 12 10 9 9 10 10 10 10 10 9 9 9 8 9 9 9 8 8 7 7 7 6 6 6 5 5 5 5 5 5 6 7 8 7 7 2 16 16 6 8 9 9 9 9 10 11 11 10 11 11 12 13 14 14
18 16 12 6 4 5 16 16 14 14 14 14 14 13 12 12 11 12 9 9 10 10 11 11 10 10 10 10 10 10 9 10 9 10 9 8 9 8 7 7 6 7 7 6 5 5 5 6 5 5 6 7 7 8 8 6 5 7 14 9 10 10 9 9 11 11 10 10 11 11 11 13 13 13
17 15 14 15 19 14 9 12 13 12 13 12 13 14 13 13 12 10 8 8 9 9 11 11 11 10 10 11 10 10 10 9 10 10 8 9 9 8 7 7 7 6 6 6 6 7 6 6 6 5 6 6 7 7 8 9 9 9 6 15 9 11 10 9 11 11 11 11 11 11 11 11 13 15
18 15 14 16 12 10 13 17 16 14 12 12 12 13 13 12 11 10 8 7 8 9 9 10 10 11 10 11 11 10 10 10 10 9 9 9 8 8 7 6 7 6 6 7 7 7 6 6 6 5 4 4 6 7 8 9 10 11 12 12 20 15 10 10 10 11 11 11 11 13 13 12 12 12
18 16 15 15 15 15 13 13 14 13 12 11 12 13 13 11 11 10 9 9 8 8 9 10 10 11 11 10 10 10 10 10 10 9 9 9 8 7 6 6 6 6 7 8 7 6 5 3 5 7 2 6 7 7 8 10 10 8 7 7 6 17 18 13 9 9 11 11 12 12 13 13 13 13
17 17 15 14 14 14 14 12 11 11 11 11 12 11 11 10 9 11 10 11 10 9 10 10 10 10 11 11 10 10 10 9 9 10 9 8 8 7 7 6 8 8 9 8 7 5 2 1 3 5 5 6 7 7 9 9 9 9 8 9 9 8 17 17 16 15 11 10 11 12 12 13 13 15
16 15 14 14 15 13 11 11 10 9 10 10 11 11 11 10 9 10 9 9 10 11 10 10 10 10 11 11 10 10 10 10 10 9 9 8 8 8 8 8 9 10 8 7 4 3 3 4 4 5 5 6 6 7 9 9 9 9 9 9 9 9 6 14 18 17 16 17 17 14 11 12 14 16
12 14 12 12 13 14 12 10 9 9 9 10 9 10 10 10 10 12 12 11 12 11 10 9 10 11 12 11 10 11 10 9 9 9 8 8 8 8 8 8 9 8 7 6 5 5 4 3 3 4 5 6 6 7 8 9 9 8 9 9 9 9 10 8 6 10 14 18 20 18 17 16 13 15
10 11 12 12 12 11 11 11 10 8 8 9 9 8 9 9 10 11 10 10 10 10 10 10 10 10 11 10 11 10 10 9 8 8 8 8 8 8 8 7 7 8 8 6 5 5 4 4 4 4 5 6 6 7 8 8 8 9 10 9 10 9 9 9 9 10 10 10 3 10 10 12 14 15
Wind_Direction
203 205 204 207 215 217 207 212 215 208 220 220 212 215 219 215 256 233 220 223 251 194 216 231 173 213 202 217 231 206 239 175 167 241 239 242 266 175 195 209 220 227 223 231 233 238 239 244 246 252 255 251 249 251 254 257 260 259 257 256 257 258 259 259 257 253 253 254 254 256 260 264 267 269
206 205 204 204 210 209 204 208 213 199 206 216 210 208 216 224 230 238 253 233 236 219 208 263 171 186 195 215 200 228 234 111 233 254 265 261 268 116 174 189 212 222 227 231 239 242 247 250 252 253 254 254 253 254 256 257 255 257 255 254 255 256 257 257 253 255 254 254 255 255 257 263 266 266
204 206 206 202 210 204 206 206 205 201 202 210 209 208 208 206 221 235 229 248 201 255 245 244 291 157 197 219 198 197 231 169 201 249 260 259 92 149 184 202 214 227 228 234 235 240 244 251 257 257 257 253 247 249 252 257 259 258 257 256 256 256 257 257 257 256 257 257 256 254 257 259 262 264
203 204 207 205 207 204 205 208 204 199 203 206 209 207 204 202 206 210 228 236 224 179 240 216 216 236 194 221 237 237 242 136 166 255 251 217 123 231 239 191 208 210 223 224 233 235 241 247 251 255 257 255 253 252 248 251 255 257 259 259 258 260 261 262 262 262 262 262 258 257 256 258 259 262
205 204 207 207 207 205 206 204 206 202 200 205 211 209 204 206 201 207 212 224 230 209 212 236 237 205 231 207 213 239 240 229 200 214 243 246 249 253 258 246 185 205 209 230 238 248 257 261 263 265 264 262 260 258 255 256 255 256 257 258 258 257 257 258 259 261 261 260 258 257 260 260 261 261
207 203 208 208 205 205 209 207 209 208 203 203 208 206 209 210 207 203 211 221 231 230 186 218 224 223 201 246 224 232 238 234 223 224 238 234 245 251 257 253 227 183 202 213 223 239 247 255 260 263 265 265 268 266 263 261 261 263 263 264 263 262 261 259 257 255 253 254 256 257 258 260 261 262
204 204 207 210 206 203 207 208 211 210 210 207 210 209 210 216 215 202 209 220 224 229 226 201 210 208 208 225 215 222 232 243 250 249 242 242 231 234 249 261 278 165 199 198 217 227 231 242 248 251 252 255 254 261 264 266 267 264 264 263 264 265 261 258 252 248 250 251 252 256 258 259 258 258
206 206 207 211 209 207 207 207 207 210 209 211 210 211 210 214 219 213 204 216 231 231 234 204 226 203 209 210 230 223 227 237 225 231 236 237 258 259 247 248 261 176 180 195 217 226 236 242 247 248 253 253 251 253 258 263 267 268 263 258 254 254 255 255 255 249 248 250 251 251 254 257 259 259
209 208 209 209 209 209 209 206 206 206 207 209 210 211 209 211 212 214 210 209 215 227 230 228 209 219 212 220 222 221 227 220 228 232 242 251 253 244 258 266 256 180 184 211 224 230 234 241 240 243 247 247 247 247 250 255 257 257 257 252 247 244 244 242 240 249 250 248 249 251 251 251 253 257
210 211 210 211 209 210 209 208 205 204 205 207 212 211 212 210 209 211 211 213 214 218 229 233 226 203 215 211 219 214 221 232 228 225 229 233 238 249 254 259 264 267 259 252 216 208 222 223 231 235 232 237 245 247 248 249 249 248 248 246 247 250 247 245 243 244 251 250 251 252 254 253 252 252
212 211 211 212 211 212 211 209 205 202 203 207 210 210 211 212 210 210 212 213 219 221 223 224 232 228 210 217 212 207 209 224 245 249 252 246 232 231 243 247 252 264 259 234 215 253 298 321 298 199 209 236 249 258 256 250 247 248 245 248 244 251 255 255 253 251 252 254 253 255 254 255 256 253
215 213 214 214 212 213 211 208 205 202 202 203 209 208 209 211 212 214 213 216 220 221 222 228 223 221 221 212 220 196 184 214 220 229 243 251 245 234 222 235 254 257 278 285 280 195 212 227 224 235 242 239 245 246 248 244 245 237 235 231 240 243 246 252 255 258 261 260 259 258 258 256 256 256
216 216 217 218 217 211 209 203 204 202 199 201 205 206 205 208 212 215 217 218 219 223 224 222 222 225 219 219 211 209 210 216 232 226 227 243 249 254 250 225 210 241 267 286 285 297 312 305 302 302 293 282 223 227 228 249 223 226 245 276 272 278 283 280 278 274 264 259 254 252 251 253 253 251
215 218 220 219 214 205 196 193 197 198 193 202 210 204 200 204 209 212 215 216 216 221 221 223 221 220 222 218 214 221 218 215 212 228 229 243 251 252 261 261 230 196 243 273 282 295 290 287 297 289 287 285 281 287 257 5 43 96 172 247 276 285 283 281 276 270 270 268 268 267 267 268 269 267
216 216 218 225 202 196 189 189 190 194 193 194 207 210 206 205 206 207 212 216 218 219 223 222 224 227 227 224 217 214 218 214 220 223 226 240 242 247 259 274 187 152 272 257 294 290 294 296 287 292 296 291 296 296 337 105 69 41 348 304 289 282 281 282 283 285 288 288 286 285 279 274 271 271
217 216 217 216 217 208 206 200 187 195 195 196 201 205 206 207 210 215 214 215 218 221 226 225 226 230 228 227 219 216 215 215 212 217 226 224 234 241 250 250 273 126 202 291 290 291 280 283 291 286 283 291 292 303 81 108 146 243 245 277 284 288 289 289 288 288 286 285 284 282 282 280 281 280
213 212 213 216 212 210 185 193 199 197 197 200 203 205 206 211 210 213 223 234 241 230 230 234 231 227 238 231 224 215 211 212 232 208 221 228 230 242 250 264 273 169 176 290 283 287 301 287 273 285 296 300 298 287 208 184 190 206 234 266 287 292 293 290 287 284 279 277 278 276 276 274 269 271
212 210 211 211 208 206 186 194 197 196 198 197 201 206 209 213 213 216 220 221 232 249 242 235 237 234 232 234 216 200 205 212 221 220 232 228 237 239 252 285 289 284 284 271 284 284 283 291 307 300 300 287 276 271 197 175 194 193 198 233 255 274 276 279 282 282 278 274 270 268 265 268 268 266
214 211 211 210 208 201 191 191 191 194 194 195 199 201 207 213 217 215 215 216 219 221 229 238 236 239 232 230 224 214 200 210 213 220 231 243 251 264 283 265 256 257 235 228 250 271 291 300 291 291 295 295 300 309 161 183 182 185 195 215 233 245 255 263 268 270 275 278 277 274 271 267 265 264
215 218 214 210 206 198 198 187 181 188 191 195 197 199 204 208 214 217 215 213 213 219 222 226 235 237 223 204 265 261 222 201 198 195 207 207 212 236 255 261 260 261 216 169 221 271 284 284 294 300 294 298 296 294 301 163 180 172 200 211 226 235 243 252 256 262 268 271 272 273 276 273 270 270
220 220 220 215 204 201 207 178 178 183 188 202 209 207 202 205 208 214 208 193 196 208 236 258 80 78 94 112 116 91 39 288 205 203 212 221 226 233 244 252 262 260 259 192 212 271 280 287 303 304 301 296 292 290 282 287 158 184 192 219 229 237 245 247 250 255 262 266 268 270 271 272 273 273
222 221 219 220 217 209 203 162 178 184 187 202 208 208 207 203 207 210 208 192 184 180 149 98 93 91 99 112 113 125 158 153 221 213 228 230 234 240 239 258 264 275 274 270 275 269 276 306 301 290 293 287 273 273 290 312 300 272 229 223 228 237 238 239 246 249 252 257 263 267 265 266 270 273
226 222 214 204 215 217 195 160 178 183 188 199 207 207 209 208 206 206 205 200 188 180 186 184 168 164 162 162 189 174 176 187 217 232 241 242 245 248 260 269 276 272 264 130 146 230 266 282 288 297 292 288 294 296 299 301 295 297 307 304 272 225 224 233 239 243 245 250 256 258 260 264 262 273
225 223 222 189 201 209 177 168 178 183 187 195 201 207 210 212 212 207 212 207 199 190 191 190 187 193 184 192 197 178 173 196 212 228 232 239 242 250 252 253 251 271 283 143 175 262 294 300 285 288 298 301 300 307 300 297 303 307 308 302 292 290 260 250 239 234 240 246 245 247 252 256 254 270
223 220 221 213 186 190 177 177 178 180 187 195 200 205 210 211 208 212 209 179 180 199 190 180 178 186 185 198 210 208 195 199 203 214 228 237 247 245 240 251 257 264 311 97 79 346 299 297 292 291 287 290 293 295 303 303 297 301 300 298 305 305 303 297 298 289 241 223 229 236 242 245 247 242
217 215 209 212 174 185 183 180 176 180 185 193 197 195 201 199 170 192 206 180 185 199 195 187 181 186 196 207 210 208 204 207 204 208 227 231 236 234 243 267 286 285 280 96 26 287 274 266 282 296 295 290 288 299 303 300 299 300 311 305 297 296 297 297 296 296 298 307 298 238 255 228 232 234
209 208 195 190 168 181 182 179 179 181 185 186 195 190 185 152 163 176 202 188 193 200 195 193 189 191 196 202 206 207 208 204 218 229 221 216 205 228 258 318 266 256 277 346 111 266 245 267 277 283 290 293 294 295 291 298 310 314 297 301 305 301 294 298 302 304 308 307 301 291 261 245 242 241
207 197 182 186 164 177 181 181 179 179 179 182 188 173 155 159 161 183 195 179 192 197 188 191 190 195 200 205 204 208 207 217 202 209 209 201 192 189 206 191 218 261 278 266 262 254 256 264 270 268 273 284 290 294 299 301 299 304 303 302 304 301 303 305 300 297 296 300 305 307 311 313 307 283
219 205 174 162 164 177 180 178 173 172 178 181 179 165 159 154 180 188 198 186 189 192 189 189 192 188 200 202 209 206 201 218 187 192 195 184 187 184 200 237 263 254 236 250 248 250 256 267 278 286 280 279 280 286 291 297 301 297 304 308 296 304 307 293 290 306 311 304 303 310 316 316 306 298
205 170 163 157 166 171 175 168 161 157 167 173 165 164 163 179 189 193 192 187 183 188 188 190 190 192 187 195 200 190 189 197 192 190 182 179 183 201 198 202 221 227 231 230 241 244 244 247 251 262 275 275 274 282 287 294 295 298 298 292 296 293 282 300 310 302 299 306 311 314 312 308 300 301
194 166 157 157 164 165 170 169 158 148 144 152 162 164 178 190 193 193 192 185 184 192 191 185 186 190 184 177 157 168 189 196 193 181 182 186 191 197 203 221 243 245 236 227 237 237 233 254 265 270 271 275 279 280 289 289 288 291 289 291 295 294 306 303 300 302 307 308 313 313 311 303 300 296
190 169 155 150 153 150 153 154 145 141 148 159 166 175 183 193 192 182 187 186 193 192 188 187 178 172 162 176 177 189 194 193 182 180 185 198 212 215 211 217 237 249 249 221 219 213 215 242 253 253 253 265 276 284 286 282 280 282 285 285 287 293 300 306 305 302 307 317 312 306 304 303 303 307
173 165 138 155 158 155 156 155 152 154 158 162 166 172 181 188 188 181 189 195 193 186 188 177 165 164 161 168 183 193 187 183 179 180 186 196 217 205 212 230 248 256 257 242 218 210 223 237 228 241 255 264 268 274 277 280 275 277 284 292 298 296 299 294 299 307 317 311 305 308 301 299 304 303
180 177 175 171 164 158 157 161 162 164 164 159 160 167 175 177 186 186 193 197 191 187 183 169 168 167 171 181 184 182 182 173 185 189 198 201 206 209 215 228 239 242 239 252 257 256 244 238 254 254 256 255 254 250 252 259 268 275 276 292 296 300 299 302 301 307 309 311 310 305 305 306 302 298
185 184 177 173 169 166 164 166 164 160 160 160 162 164 167 167 168 178 185 193 188 183 180 177 172 167 179 174 176 179 181 178 196 184 182 216 215 219 225 234 240 241 241 241 241 234 243 250 247 260 259 260 258 248 220 227 256 262 281 285 302 300 303 300 300 304 311 303 295 300 305 304 301 308
188 183 180 174 173 172 170 168 160 158 157 158 160 154 155 170 180 179 185 183 189 181 177 175 175 170 175 173 173 181 183 192 197 185 192 220 224 225 226 234 245 244 242 243 243 244 245 259 266 276 285 288 287 286 281 195 212 259 282 297 297 302 299 297 299 304 303 298 305 307 302 304 307 308
177 184 182 184 183 182 177 164 156 152 152 152 151 155 160 168 173 183 180 176 183 174 174 168 176 174 173 171 173 183 181 194 209 198 206 223 224 222 227 229 229 235 245 243 244 248 233 244 245 261 273 278 284 289 296 146 205 227 289 297 299 299 302 300 299 297 297 307 306 302 303 304 302 301
175 165 149 104 21 244 152 140 136 139 145 149 149 149 151 157 162 171 162 172 170 171 171 175 172 173 173 172 174 182 195 206 215 231 229 222 216 218 222 233 234 222 223 227 225 229 231 240 248 255 259 269 283 286 295 301 311 232 215 243 291 296 293 292 293 299 304 306 306 306 306 301 300 305
164 160 156 147 141 131 127 120 132 142 148 152 152 150 150 155 158 157 159 169 168 174 173 176 172 172 175 178 186 188 199 211 213 223 219 215 213 217 220 225 232 230 232 232 223 222 222 230 237 245 252 266 277 296 307 305 286 301 253 200 253 280 282 288 296 297 304 305 306 309 300 296 290 284
153 148 144 139 134 136 144 141 139 144 156 156 151 148 148 146 149 145 148 167 178 182 175 176 169 169 180 181 186 202 208 206 221 222 218 215 212 213 218 225 231 232 222 232 229 224 219 227 226 243 259 279 298 297 298 286 287 275 270 234 211 231 265 289 287 298 300 302 307 307 309 310 308 316
131 137 135 133 133 135 136 134 135 140 148 149 141 138 137 138 141 148 161 169 176 180 178 177 173 177 184 191 192 208 218 211 220 217 214 213 217 209 209 219 228 229 236 228 226 229 233 221 81 85 290 277 267 270 263 263 268 284 289 307 212 211 228 233 262 286 289 299 304 307 309 313 317 319
128 127 128 121 126 130 129 127 127 134 140 142 140 136 133 138 144 147 157 167 175 182 181 175 176 182 190 197 201 214 229 215 213 209 208 209 204 197 185 203 229 234 225 227 221 223 177 132 207 215 235 235 249 253 266 274 286 293 303 300 303 214 209 230 234 235 254 285 302 303 303 311 321 320
114 118 120 125 122 119 120 132 133 138 136 134 134 137 136 138 140 155 170 165 176 181 179 175 176 190 200 203 205 208 216 211 207 205 205 206 211 203 198 207 226 229 221 227 230 224 228 216 219 231 235 251 254 263 270 279 285 290 291 301 305 311 277 217 222 234 240 242 242 252 282 303 317 317
109 112 115 120 116 117 124 125 126 129 129 131 134 135 139 144 150 170 173 167 174 180 179 181 187 195 203 207 200 209 214 209 196 204 204 202 207 210 209 207 211 225 230 229 220 217 212 233 245 241 253 254 263 269 277 282 284 292 305 296 299 301 297 314 307 233 231 233 239 243 249 253 250 264
91 106 115 114 114 113 114 119 121 123 122 124 135 136 143 150 162 170 169 170 175 177 182 189 186 198 205 198 203 207 202 200 202 195 203 198 201 204 214 226 216 219 231 227 222 217 217 231 235 244 254 256 257 266 271 274 282 293 287 296 304 303 311 317 308 305 310 317 242 183 215 220 238 248